Location: Unspecified
(49.2170°N, 0.0000°E)
Time: 19:44:20
(UTC+00:00)

Transit 4A - Pass Details

Date: 17 June 2019
Orbit: 863 x 981 km, 66.8° (Epoch: 22 August)

Event Time Altitude Azimuth Distance (km) Brightness Sun altitude
Rises 15:25:16 0° 320° (NW) 3,693 11.3 42.6°
Reaches altitude 10° 15:28:27 10° 334° (NNW) 2,745 10.6 42.1°
Maximum altitude 15:33:30 24° 26° (NNE) 1,933 9.5 41.3°
Drops below altitude 10° 15:38:30 10° 78° (ENE) 2,717 10.0 40.5°
Sets 15:41:37 0° 92° (E) 3,647 10.5 40.0°
